This demonstration page uses our WeatherBlox Daily Observations layout. Learn more.

Left ArrowRight Arrow

36.19886, -115.1175

Hourly Observations for February 23, 2022

Temp ( °F °C ) Dew Point ( °F °C ) Humidity (%) Winds ( mph kmh ) Pressure ( in mb ) Visibility ( mi km ) Precip ( " mm )
12:53 am 00:53 Clear 45 7.2 19 -7.2 35 35 undefined N/A 29.76 1008 10 16 0.00 0.00
1:53 am 01:53 Clear 40 4.4 30 -1.1 68 68 undefined N/A 29.77 1008 10 16 0.00 0.00
2:53 am 02:53 Clear 39 3.9 28 -2.2 65 65 undefined N/A 29.77 1008 10 16 0.00 0.00
3:53 am 03:53 Mostly Clear 41 5 19 -7.2 41 41 undefined N/A 29.77 1008 10 16 0.00 0.00
4:53 am 04:53 Partly Cloudy 36 2.2 25 -3.9 64 64 undefined N/A 29.80 1009 10 16 0.00 0.00
5:53 am 05:53 Mostly Cloudy 39 3.9 27 -2.8 62 62 undefined N/A 29.80 1009 10 16 0.00 0.00
6:53 am 06:53 Sunny 38 3.3 27 -2.8 65 65 undefined N/A 29.85 1011 10 16 0.00 0.00
7:53 am 07:53 Cloudy 40 4.4 26 -3.3 58 58 undefined N/A 29.87 1011 10 16 0.00 0.00
8:53 am 08:53 Cloudy 41 5 25 -3.9 53 53 undefined N/A 29.89 1012 10 16 0.00 0.00
9:53 am 09:53 Mostly Sunny N/A N/A N/A undefined N/A N/A N/A 0.00 0.00
11:53 am 11:53 Mostly Sunny 50 10 19 -7.2 29 29 undefined N/A 29.86 1011 10 16 0.00 0.00
12:53 pm 12:53 Mostly Cloudy 51 10.6 16 -8.9 25 25 NW 14 22 29.85 1011 10 16 0.00 0.00
1:40 pm 13:40 Cloudy 48 8.9 21 -6.1 34 34 WSW 15 24 29.82 1010 10 16 0.00 0.00
1:53 pm 13:53 Cloudy 48 8.9 20 -6.7 33 33 WNW 13 20 29.88 1012 10 16 0.00 0.00
2:53 pm 14:53 Mostly Sunny 50 10 16 -8.9 26 26 WNW 22 35 29.89 1012 10 16 0.00 0.00
3:53 pm 15:53 Mostly Cloudy 48 8.9 16 -8.9 28 28 WNW 16 26 29.91 1013 10 16 0.00 0.00
4:53 pm 16:53 Mostly Cloudy 48 8.9 10 -12.2 21 21 NW 18 30 29.93 1014 10 16 0.00 0.00
5:53 pm 17:53 Clear 47 8.3 10 -12.2 22 22 NW 15 24 29.97 1015 10 16 0.00 0.00
6:53 pm 18:53 Clear 46 7.8 13 -10.6 26 26 NW 21 33 30.01 1016 10 16 0.00 0.00
7:53 pm 19:53 Clear 45 7.2 13 -10.6 27 27 NW 16 26 30.05 1018 10 16 0.00 0.00
8:53 pm 20:53 Clear 44 6.7 14 -10 30 30 NNW 10 17 30.09 1019 10 16 0.00 0.00
9:53 pm 21:53 Clear 42 5.6 14 -10 32 32 N 12 19 30.09 1019 10 16 0.00 0.00
10:53 pm 22:53 Clear 41 5 14 -10 33 33 N 8 13 30.13 1020 10 16 0.00 0.00
11:53 pm 23:53 Clear 39 3.9 14 -10 36 36 N 12 19 30.16 1021 10 16 0.00 0.00

Powered by AerisWeather